Miscellaneous Local Product
Issued by NWS North Platte, NE

Home | Current Version | Previous Version | Text Only | Print | Product List | Glossary On
Versions: 1 2 3 4 5 6 7 8 9 10 11 12 13 14 15 16 17 18 19 20 21 22 23 24 25 26 27 28 29 30 31 32 33 34 35 36 37 38 39 40 41 42 43 44 45 46 47 48 49 50
000
AXUS43 KLBF 011110
MISLBF


WESTERN AND NORTH CENTRAL NEBRASKA HOURLY WEATHER ROUNDUP
NATIONAL WEATHER SERVICE NORTH PLATTE NE
600 AM CDT WED OCT 01 2014

***STATIONS NOT REPORTING VARIABLES SUCH AS SKY/WEATHER OR
PRESSURE ARE PROVIDED BY THE NEBRASKA DEPARTMENT OF
ROADS...RAWS...AND APRS NETWORKS...AND ARE NOT UNDER
NATIONAL WEATHER SERVICE QUALITY CONTROL***

...OBSERVATIONS IN AND NEAR THE EASTERN PANHANDLE OF NEBRASKA...

CITY           SKY/WX    TMP DP  RH WIND       PRES   REMARKS
PINE RIDGE     CLEAR     45  43  93 CALM      29.79R
CHADRON        CLEAR     48  44  86 SW9       29.80R
ALLIANCE       PTCLDY    43  42  97 W7        29.81R
SIDNEY         CLEAR     47  41  80 W12       29.85R
WHITECLAY        N/A     43  40  89 E5          N/A
RUSHVILLE        N/A     47  43  85 NW13        N/A
CRESCENT LAKE    N/A     48  43  84 NW7         N/A
LISCO            N/A     47  42  81 W6          N/A
BIG SPRINGS      N/A     50  46  85 W3          N/A
$$

...OBSERVATIONS IN NORTH CENTRAL NEBRASKA...

CITY           SKY/WX    TMP DP  RH WIND       PRES   REMARKS
VALENTINE      MOCLDY    49  46  90 W3        29.75R
THEDFORD       MOCLDY    56  47  71 W3        29.77R
AINSWORTH      MOCLDY    52  46  81 NE6       29.74R
O`NEILL        CLOUDY    62  57  83 S6        29.71F
ORD            MOCLDY    57  56  96 E3        29.72F
BROKEN BOW     MOCLDY    57  52  83 E3        29.74S
SPRINGVIEW       N/A     49  46  91 CALM        N/A
ROSE             N/A     60  59  97 SE6         N/A
NEWPORT          N/A     55  52  88 SW7         N/A
SARGENT          N/A     59  52  76 CALM        N/A
COMSTOCK         N/A     60  59  97 CALM        N/A
CHAMBERS         N/A     58  55  91 CALM        N/A
EWING            N/A     61  60  95 CALM        N/A
$$

...OBSERVATIONS IN SOUTHWEST NEBRASKA AND FAR NORTHEAST COLORADO...

CITY           SKY/WX    TMP DP  RH WIND       PRES   REMARKS
WRAY           FAIR      48  44  88 MISG      29.82R
HOLYOKE        FAIR      54  45  71 NW6       29.82S
IMPERIAL       CLEAR     52  45  77 NW8       29.80R
OGALLALA       PTCLDY    47  46  93 CALM      29.80R
NORTH PLATTE   MOCLDY    47  45  93 CALM      29.77R
MCCOOK         PTCLDY    50  49  96 W7        29.76S
LEXINGTON      PTCLDY    55  54  97 CALM      29.75F FOG
PAXTON           N/A     50  47  88 CALM        N/A
SUTHERLAND       N/A     46  44  91 W5          N/A
BRADY            N/A     53  49  85 CALM        N/A
GOTHENBURG       N/A     59  49  68 CALM        N/A
CALLAWAY         N/A     56  53  89 SE6         N/A
$$

...SOME WEATHER OBSERVATIONS FROM AROUND THE REGION...

CITY           SKY/WX    TMP DP  RH WIND       PRES   REMARKS
DENVER         MOCLDY    42  37  82 S5        29.87S
LARAMIE        CLOUDY    42  34  73 SW14      29.93S
CHEYENNE       CLOUDY    50  34  54 NW6       29.91R
SCOTTSBLUFF    CLEAR     45  43  93 W6        29.84R
RAPID CITY     MOCLDY    50  45  83 W6        29.76S
PIERRE         CLOUDY    54  47  77 SW6       29.68R
WINNER         FAIR      53  47  79 CALM      29.71S
SIOUX FALLS    CLOUDY    63  61  93 S9        29.71S
OMAHA          RAIN      62  60  93 SE9       29.72F FOG
GRAND ISLAND   CLOUDY    62  61  96 NW8       29.75R FOG
KANSAS CITY    TSTM      64  63  96 CALM      29.80R VSB 1
WICHITA        MOCLDY    70  64  81 S7        29.72S
HAYS           CLEAR     57  52  82 NW3       29.71S
LIBERAL        CLEAR     54  45  71 NW7       29.74R
GOODLAND       CLEAR     47  43  86 NW7       29.82R
$$



USA.gov is the U.S. government's official web portal to all federal, state and local government web resources and services.